Location: Unspecified
(0.0000°N, 0.0000°E)
Time: 11:49:20
(UTC-04:00)

Hubble Space Telescope - Pass Details

Date: 29 September 2021
Orbit: 535 x 539 km, 28.5° (Epoch: 24 October)

Event Time Altitude Azimuth Distance (km) Brightness Sun altitude
Rises 14:46:25 0° 279° (W) 2,663 6.0 -14.1°
Reaches altitude 10° 14:48:57 10° 266° (W) 1,776 4.8 -14.7°
Maximum altitude 14:52:24 26° 209° (SSW) 1,081 2.6 -15.5°
Drops below altitude 10° 14:55:51 10° 152° (SSE) 1,781 3.2 -16.4°
Enters shadow 14:56:03 - 151° (SSE) 1,845 3.2 -16.5°
